Home > Time Zones > World Clock > Weather > Japan > Osaka > Past weeks

Flag for Japan Weather past 2 weeks in Osaka, Japan

Now
66 °F

Mostly cloudy.


Feels Like: 66 °F
Forecast: 55 / 74 °F
Wind: 3 mph from Southwest

Location: Kansai International Airport

Current Time: Apr 28, 2015 at 11:39:02 PM

Latest Report: Apr 28, 2015 at 11:00 PM


Visibility: N/A

Pressure: 30.01 "Hg

Humidity: 60%

Dew point: 52 °F

Location of OsakaLocation

Historic Weather in Osaka — Graph

°F

Osaka temperature yesterday

Maximum temperature yesterday: 77 °F (at 1:00 PM)
Minimum temperature yesterday: 59 °F (at 5:00 AM)
Average temperature yesterday: 68 °F

Past Weeks' High & Low Weather Summary

 TemperatureHumidityPressure
High77 °F (Apr 27, 1:00 PM)100% (Apr 14, 3:30 AM)30.18 "Hg (Apr 14, 3:30 AM)
Low48 °F (Apr 18, 4:30 AM)16% (Apr 25, 2:30 PM)29.47 "Hg (Apr 20, 2:30 PM)
Average61 °F67%29.96 "Hg
* Reported Apr 13 10:00 PM — Apr 28 10:30 PM, Osaka, Weather by CustomWeather, © 2015

Note: Actual official high and low records may vary slightly from our data, if they occured in-between our weather recording intervals... More about our weather records

Advertising

Osaka weather history for previous 24 hours

 ConditionsComfort  
Time TempWeatherWind HumidityBarometerVisibility
10:30 PM
Tue, Apr 28
64 °FMostly cloudy.7 mph73%30.01 "HgN/A
10:00 PM66 °FMostly cloudy.7 mph68%30.01 "HgN/A
9:30 PM66 °FMostly cloudy.13 mph68%30.01 "HgN/A
9:00 PM64 °FMostly cloudy.8 mph78%30.01 "HgN/A
8:30 PM64 °FMostly cloudy.8 mph78%30.01 "HgN/A
8:00 PM66 °FPartly cloudy.13 mph73%30.01 "HgN/A
7:30 PM66 °FPartly cloudy.10 mph73%30.01 "HgN/A
7:00 PM66 °FPartly cloudy.13 mph68%30.01 "HgN/A
6:30 PM66 °FBroken clouds.12 mph68%30.01 "HgN/A
6:00 PM66 °FMore clouds than sun.10 mph64%30.01 "HgN/A
5:30 PM66 °FMore clouds than sun.12 mph64%30.01 "HgN/A
5:00 PM68 °FMore clouds than sun.14 mph60%30.01 "HgN/A
4:30 PM68 °FMore clouds than sun.14 mph56%29.98 "HgN/A
4:00 PM70 °FMore clouds than sun.13 mph57%30.01 "HgN/A
3:30 PM70 °FMore clouds than sun.15 mph60%30.01 "HgN/A
3:00 PM70 °FOvercast.13 mph57%30.01 "HgN/A
2:30 PM70 °FMore clouds than sun.13 mph57%30.01 "HgN/A
2:00 PM72 °FMore clouds than sun.13 mph53%30.01 "HgN/A
1:30 PM72 °FOvercast.13 mph53%30.04 "HgN/A
1:00 PM72 °FPartly sunny.13 mph53%30.04 "HgN/A
12:30 PM72 °FPartly sunny.13 mph61%30.04 "HgN/A
12:00 PM70 °FPartly sunny.10 mph64%30.07 "HgN/A
11:30 AM70 °FPartly sunny.8 mph64%30.07 "HgN/A
11:00 AM70 °FPartly sunny.8 mph64%30.07 "HgN/A
10:30 AM70 °FPartly sunny.8 mph64%30.09 "HgN/A
10:00 AM70 °FPartly sunny.7 mph64%30.09 "HgN/A
9:30 AM70 °FPartly sunny.6 mph69%30.09 "HgN/A
9:00 AM70 °FPartly sunny.5 mph64%30.09 "HgN/A
8:30 AM66 °FPartly sunny.1 mph73%30.07 "HgN/A
8:00 AM64 °FSunny.2 mph83%30.07 "Hg10 mi
7:30 AM64 °FSunny.3 mph83%30.07 "Hg10 mi
7:00 AM64 °FSunny.5 mph78%30.07 "Hg10 mi
6:30 AM63 °FPartly sunny.5 mph88%30.07 "Hg6 mi
6:00 AM63 °FPartly sunny.3 mph83%30.07 "Hg6 mi
5:30 AM63 °FPartly sunny.3 mph83%30.07 "Hg6 mi
5:00 AM63 °FPassing clouds.3 mph83%30.07 "Hg6 mi
4:30 AM63 °FPassing clouds.3 mph83%30.07 "HgN/A
4:00 AM63 °FPassing clouds.5 mph83%30.07 "HgN/A
3:30 AM63 °FPassing clouds.6 mph83%30.04 "HgN/A
3:00 AM63 °FPassing clouds.6 mph83%30.04 "HgN/A
2:30 AM64 °FPassing clouds.3 mph78%30.04 "HgN/A
2:00 AM64 °FClear.8 mph83%30.04 "Hg10 mi
1:30 AM64 °FClear.6 mph83%30.07 "Hg10 mi
1:00 AM64 °FClear.9 mph83%30.07 "Hg10 mi
12:30 AM66 °FClear.12 mph78%30.04 "Hg10 mi
12:00 AM66 °FClear.14 mph78%30.07 "Hg10 mi
11:30 PM
Mon, Apr 27
66 °FClear.10 mph73%30.07 "Hg10 mi
11:00 PM66 °FClear.12 mph73%30.07 "Hg10 mi
Weather by CustomWeather, © 2015

See weather overviewHow to use our weather pages